Location: Amsterdam
(30.7274°N, 84.4357°W)
Time: 20:29:15
(UTC+00:00)

Altair - Pass Details

Date: 09 August 2024
Orbit: 1501 x 1682 km, 47.2° (Epoch: 07 September)

Event Time Altitude Azimuth Distance (km) Brightness Sun altitude
Rises 14:46:02 0° 181° (S) 4,916 10.2 46.9°
Reaches altitude 10° 14:50:33 10° 164° (SSE) 3,919 10.0 47.8°
Maximum altitude 14:56:51 19° 124° (SE) 3,249 10.3 49.2°
Drops below altitude 10° 15:03:02 10° 85° (E) 3,861 10.4 50.5°
Sets 15:07:22 0° 68° (ENE) 4,819 10.6 51.4°
